Hourly Weather Kweta

Today, 21 January, Thursday

Time Temperature Precipitation Wind Pressure Humidity
00:00 +7°C° 0 mm 0 mps 615 mmHg 36%
01:00 +6°C° 0 mm 0 mps 615 mmHg 35%
02:00 +6°C° 0 mm 0 mps 615 mmHg 33%
03:00 +6°C° 0 mm 0 mps 614 mmHg 32%
04:00 +6°C° 0 mm 1 mps 614 mmHg 30%
05:00 +7°C° 0 mm 1 mps 614 mmHg 31%
06:00 +7°C° 0 mm 1 mps 614 mmHg 32%
07:00 +7°C° 0 mm 1 mps 615 mmHg 32%
08:00 +10°C° 0 mm 1 mps 616 mmHg 28%
09:00 +12°C° 0 mm 1 mps 617 mmHg 25%
10:00 +15°C° 0 mm 1 mps 618 mmHg 21%
11:00 +16°C° 0 mm 2 mps 618 mmHg 20%
12:00 +17°C° 0 mm 2 mps 617 mmHg 19%
13:00 +18°C° 0 mm 3 mps 617 mmHg 17%
14:00 +18°C° 0 mm 3 mps 617 mmHg 19%
15:00 +18°C° 0 mm 3 mps 617 mmHg 20%
16:00 +18°C° 0 mm 2 mps 616 mmHg 22%
17:00 +16°C° 0 mm 2 mps 616 mmHg 26%
18:00 +15°C° 0 mm 2 mps 616 mmHg 31%
19:00 +13°C° 0 mm 2 mps 616 mmHg 35%
20:00 +12°C° 0 mm 2 mps 615 mmHg 37%
21:00 +12°C° 0 mm 2 mps 615 mmHg 39%
22:00 +11°C° 0 mm 1 mps 615 mmHg 40%
23:00 +10°C° 0 mm 2 mps 615 mmHg 41%

Tomorrow, 22 January, Friday

Time Temperature Precipitation Wind Pressure Humidity
00:00 +10°C° 0 mm 2 mps 615 mmHg 41%
01:00 +10°C° 0 mm 2 mps 614 mmHg 41%
02:00 +9°C° 0 mm 2 mps 614 mmHg 44%
03:00 +9°C° 0 mm 3 mps 614 mmHg 48%
04:00 +8°C° 0 mm 3 mps 613 mmHg 51%
05:00 +8°C° 0 mm 3 mps 614 mmHg 53%
06:00 +8°C° 0 mm 3 mps 614 mmHg 54%
07:00 +7°C° 0 mm 4 mps 615 mmHg 56%
08:00 +7°C° 0 mm 4 mps 616 mmHg 51%
09:00 +8°C° 0 mm 5 mps 616 mmHg 47%
10:00 +9°C° 0 mm 5 mps 617 mmHg 42%
11:00 +9°C° 0 mm 5 mps 617 mmHg 38%
12:00 +9°C° 0 mm 6 mps 617 mmHg 34%
13:00 +9°C° 0 mm 6 mps 616 mmHg 30%
14:00 +8°C° 0 mm 6 mps 616 mmHg 28%
15:00 +6°C° 0 mm 7 mps 616 mmHg 26%
16:00 +5°C° 0 mm 7 mps 615 mmHg 23%
17:00 +4°C° 0 mm 7 mps 615 mmHg 25%
18:00 +3°C° 0 mm 6 mps 615 mmHg 28%
19:00 +2°C° 0 mm 6 mps 616 mmHg 30%
20:00 +1°C° 0 mm 5 mps 615 mmHg 31%
21:00 -1°C° 0 mm 5 mps 615 mmHg 33%
22:00 -2°C° 0 mm 5 mps 615 mmHg 35%
23:00 -2°C° 0 mm 5 mps 615 mmHg 36%

Day after tomorrow, 23 January, Saturday

Time Temperature Precipitation Wind Pressure Humidity
00:00 -4°C° 0 mm 5 mps 615 mmHg 38%
01:00 -5°C° 0 mm 5 mps 614 mmHg 39%
02:00 -5°C° 0 mm 5 mps 614 mmHg 40%
03:00 -6°C° 0 mm 5 mps 614 mmHg 40%
04:00 -5°C° 0 mm 4 mps 614 mmHg 41%
05:00 -7°C° 0 mm 4 mps 614 mmHg 43%
06:00 -7°C° 0 mm 4 mps 615 mmHg 44%
07:00 -7°C° 0 mm 4 mps 615 mmHg 46%
08:00 -5°C° 0 mm 3 mps 615 mmHg 42%
09:00 -4°C° 0 mm 3 mps 616 mmHg 37%
10:00 -1°C° 0 mm 3 mps 616 mmHg 33%
11:00 -1°C° 0 mm 4 mps 616 mmHg 30%
12:00 0°C° 0 mm 4 mps 616 mmHg 27%
13:00 +1°C° 0 mm 4 mps 615 mmHg 24%
14:00 +1°C° 0 mm 4 mps 615 mmHg 24%
15:00 +1°C° 0 mm 4 mps 615 mmHg 24%
16:00 +1°C° 0 mm 4 mps 615 mmHg 24%
17:00 0°C° 0 mm 4 mps 615 mmHg 28%
18:00 -1°C° 0 mm 4 mps 615 mmHg 31%
19:00 -1°C° 0 mm 3 mps 616 mmHg 35%
20:00 -2°C° 0 mm 3 mps 616 mmHg 36%
21:00 -2°C° 0 mm 3 mps 615 mmHg 37%
22:00 -4°C° 0 mm 3 mps 615 mmHg 39%
23:00 -4°C° 0 mm 3 mps 615 mmHg 39%

24 January, Sunday

Time Temperature Precipitation Wind Pressure Humidity
00:00 -4°C° 0 mm 3 mps 615 mmHg 40%
01:00 -3°C° 0 mm 2 mps 615 mmHg 40%
02:00 -4°C° 0 mm 2 mps 615 mmHg 40%
03:00 -4°C° 0 mm 2 mps 614 mmHg 40%
04:00 -4°C° 0 mm 2 mps 614 mmHg 40%
05:00 -4°C° 0 mm 2 mps 614 mmHg 37%
06:00 -3°C° 0 mm 2 mps 615 mmHg 35%
07:00 -3°C° 0 mm 2 mps 615 mmHg 32%
08:00 -1°C° 0 mm 2 mps 616 mmHg 27%
09:00 +2°C° 0 mm 2 mps 617 mmHg 22%
10:00 +4°C° 0 mm 2 mps 618 mmHg 18%
11:00 +5°C° 0 mm 2 mps 617 mmHg 16%
12:00 +6°C° 0 mm 2 mps 617 mmHg 15%
13:00 +7°C° 0 mm 2 mps 617 mmHg 14%
14:00 +7°C° 0 mm 2 mps 617 mmHg 14%
15:00 +8°C° 0 mm 1 mps 617 mmHg 14%
16:00 +8°C° 0 mm 1 mps 617 mmHg 15%
17:00 +7°C° 0 mm 1 mps 617 mmHg 18%
18:00 +5°C° 0 mm 1 mps 616 mmHg 22%
19:00 +4°C° 0 mm 1 mps 616 mmHg 26%
20:00 +3°C° 0 mm 1 mps 616 mmHg 26%
21:00 +3°C° 0 mm 1 mps 616 mmHg 27%
22:00 +2°C° 0 mm 1 mps 616 mmHg 27%
23:00 +2°C° 0 mm 1 mps 616 mmHg 27%

25 January, Monday

Time Temperature Precipitation Wind Pressure Humidity
00:00 +1°C° 0 mm 1 mps 615 mmHg 28%
01:00 +1°C° 0 mm 1 mps 615 mmHg 28%
02:00 +1°C° 0 mm 1 mps 615 mmHg 28%
03:00 +1°C° 0 mm 1 mps 615 mmHg 29%
04:00 0°C° 0 mm 1 mps 614 mmHg 29%
05:00 0°C° 0 mm 1 mps 615 mmHg 28%
06:00 0°C° 0 mm 1 mps 615 mmHg 28%
07:00 +1°C° 0 mm 1 mps 615 mmHg 27%
08:00 +3°C° 0 mm 1 mps 616 mmHg 23%
09:00 +5°C° 0 mm 1 mps 617 mmHg 19%
10:00 +7°C° 0 mm 1 mps 618 mmHg 15%
11:00 +7°C° 0 mm 1 mps 618 mmHg 14%
12:00 +8°C° 0 mm 1 mps 618 mmHg 13%
13:00 +8°C° 0 mm 2 mps 618 mmHg 12%
14:00 +8°C° 0 mm 2 mps 618 mmHg 13%
15:00 +8°C° 0 mm 2 mps 618 mmHg 13%
16:00 +8°C° 0 mm 2 mps 617 mmHg 14%
17:00 +6°C° 0 mm 2 mps 617 mmHg 17%
18:00 +5°C° 0 mm 2 mps 617 mmHg 21%
19:00 +4°C° 0 mm 2 mps 617 mmHg 25%
20:00 +3°C° 0 mm 2 mps 616 mmHg 26%
21:00 +3°C° 0 mm 1 mps 616 mmHg 27%
22:00 +3°C° 0 mm 1 mps 616 mmHg 28%
23:00 +2°C° 0 mm 1 mps 616 mmHg 27%

26 January, Tuesday

Time Temperature Precipitation Wind Pressure Humidity
00:00 +2°C° 0 mm 1 mps 615 mmHg 27%
01:00 +1°C° 0 mm 1 mps 615 mmHg 27%
02:00 +1°C° 0 mm 1 mps 614 mmHg 27%
03:00 +1°C° 0 mm 1 mps 614 mmHg 27%
04:00 0°C° 0 mm 1 mps 614 mmHg 27%
05:00 0°C° 0 mm 1 mps 614 mmHg 27%
06:00 0°C° 0 mm 1 mps 614 mmHg 27%
07:00 0°C° 0 mm 1 mps 615 mmHg 27%
08:00 +2°C° 0 mm 1 mps 616 mmHg 23%
09:00 +4°C° 0 mm 1 mps 616 mmHg 20%
10:00 +6°C° 0 mm 1 mps 617 mmHg 16%
11:00 +6°C° 0 mm 2 mps 617 mmHg 15%
12:00 +7°C° 0 mm 2 mps 617 mmHg 14%
13:00 +8°C° 0 mm 2 mps 616 mmHg 13%
14:00 +7°C° 0 mm 2 mps 616 mmHg 14%
15:00 +7°C° 0 mm 2 mps 616 mmHg 14%
16:00 +7°C° 0 mm 2 mps 616 mmHg 14%
17:00 +6°C° 0 mm 2 mps 616 mmHg 18%
18:00 +5°C° 0 mm 2 mps 616 mmHg 22%
19:00 +4°C° 0 mm 1 mps 615 mmHg 25%
20:00 +4°C° 0 mm 1 mps 615 mmHg 26%
21:00 +3°C° 0 mm 1 mps 615 mmHg 27%
22:00 +3°C° 0 mm 1 mps 615 mmHg 29%
23:00 +2°C° 0 mm 1 mps 615 mmHg 29%
Show more